Regional Weather Roundup
Issued by NWS

Home | Current Version | Previous Version | Text Only | Print | Product List | Glossary Off
Versions: 1 2 3 4 5 6 7 8 9 10 11 12 13 14 15 16 17 18 19 20 21 22 23 24 25 26 27 28 29 30 31 32 33 34 35 36 37 38 39 40 41 42 43 44 45 46 47 48 49 50

000
ASUS43 KBIS 221702
RWRND

NORTH DAKOTA REGIONAL WEATHER ROUNDUP
NATIONAL WEATHER SERVICE BISMARCK ND
1200 PM CDT WED MAR 22 2017

NOTE: "FAIR" INDICATES FEW OR NO CLOUDS BELOW 12,000 FEET WITH NO
SIGNIFICANT WEATHER AND/OR OBSTRUCTIONS TO VISIBILITY.


NDZ001>003-009>011-017-221800-
NORTHWEST NORTH DAKOTA

CITY           SKY/WX    TMP DP  RH WIND       PRES   REMARKS
WILLISTON      PTSUNNY   36  26  67 SE14      29.89F
MINOT          CLOUDY    32  23  69 SE16G24   30.04F
MINOT AFB      CLOUDY    30  22  74 S20G25    30.03F WCI  17
$$

NDZ018>021-031>035-040>046-221800-
SOUTHWEST NORTH DAKOTA

CITY           SKY/WX    TMP DP  RH WIND       PRES   REMARKS
BISMARCK       CLOUDY    37  25  61 S23G33    30.06F
DICKINSON      CLOUDY    35  27  72 S25       29.89F
GARRISON         N/A     30  23  75 S17G26    30.01F WCI  18
HETTINGER ARPT CLOUDY    41  30  65 S21G30    29.92F
$$

NDZ004>008-012>016-024-026-027-054-221800-
NORTHEAST NORTH DAKOTA

CITY           SKY/WX    TMP DP  RH WIND       PRES   REMARKS
GRAND FORKS    CLOUDY    28   6  39 S23G30    30.34F WCI  14
GRND FRKS AFB  CLOUDY    27  10  50 S23       30.31F WCI  12
DEVILS LAKE    CLOUDY    26  17  68 SE23G29   30.18F WCI  11
$$

NDZ022-023-025-028>030-036>039-047>053-221800-
SOUTHEAST NORTH DAKOTA

CITY           SKY/WX    TMP DP  RH WIND       PRES   REMARKS
FARGO          CLOUDY    30  11  45 S30G38    30.36F WCI  15
JAMESTOWN      LGT SNOW  26  21  81 SE23G35   30.20F WCI  11
$$




USA.gov is the U.S. government's official web portal to all federal, state and local government web resources and services.